date:2026-07-26T15:32:07+00:00
validtle:1
satid:43782
launchyear:2018
epoch:26207.11991558
epochday:207
tleage:0
tleclassification:U
active:1
name:SNUSAT-2
meananomly:208.5489
meanmotion:15.2239
rightascension:0.0000
declination:0.0000
semimajoraxis:6876.7844479793
altitudeatperigee:491
altitudeatapogee:506
inclination:97.4042
eccentricity:0.0011239
argumentofperigree:151.6362
nickname:SNUSAT-2
idesg:18099AA 
cosparid:2018-099AA
altkm:508.5335823532
velkms:7.6059686611491
velkmh:27381
onumepoch:41895
onumnow:637811.73
otype:1
otypedesc:Low Earth Orbit (LEO)
status:1
timestamp:2026-07-26T02:52:41+00:00
nowjuliandate:2461248.1473038
nowepochdate:26207.6473032407
TLE:
SNUSAT-2
1 43782U 18099AA  26207.11991558  .00008547  00000+0  37241-3 0  9990
2 43782  97.4042 259.9138 0011239 151.6362 208.5489 15.22386201418952